Regional Weather Roundup
Issued by NWS

Home | Current Version | Previous Version | Text Only | Print | Product List | Glossary Off
Versions: 1 2 3 4 5 6 7 8 9 10 11 12 13 14 15 16 17 18 19 20 21 22 23 24 25 26 27 28 29 30 31 32 33 34 35 36 37 38 39 40 41 42 43 44 45 46 47 48 49 50

000
ASUS43 KFSD 280502
RWRSD

WEATHER ROUNDUP FOR SOUTH DAKOTA
NATIONAL WEATHER SERVICE SIOUX FALLS SD
1200 AM CDT FRI AUG 28 2015

NOTE: "FAIR" INDICATES FEW OR NO CLOUDS BELOW 12,000 FEET WITH NO
SIGNIFICANT WEATHER AND/OR OBSTRUCTIONS TO VISIBILITY.


SDZ001>005-009-010-012>017-280600-
NORTHWEST AND NORTH CENTRAL SOUTH DAKOTA

CITY           SKY/WX    TMP DP  RH WIND       PRES   REMARKS
BUFFALO          N/A     65  58  78 SE7       29.92S
FAITH            N/A     64  60  87 S10       29.96F
MOBRIDGE       CLEAR     61  61 100 CALM      29.92S
$$

SDZ012>016-024>037-041>051-057-063-072>074-280600-
SOUTHWEST AND SOUTH CENTRAL SOUTH DAKOTA

CITY           SKY/WX    TMP DP  RH WIND       PRES   REMARKS
RAPID CTY ARPT MOCLDY    61  59  93 SE5       30.02R
PIERRE         PTCLDY    67  67 100 CALM      29.91S
CUSTER         PTCLDY    60  49  66 W8        30.14S
ELLSWORTH AFB  PTCLDY    63  61  91 SE10      30.00R
PHILIP         CLEAR     61  61 100 W7        29.96S
PINE RIDGE     PTCLDY    55  52  89 CALM      30.03F
WINNER         CLOUDY    70  68  93 NE7       29.91F FOG
$$

SDZ004>011-016>023-039-040-280600-
NORTHEAST SOUTH DAKOTA

CITY           SKY/WX    TMP DP  RH WIND       PRES   REMARKS
ABERDEEN       MOCLDY    63  62  97 SE5       29.92S
WATERTOWN      MOCLDY    68  64  87 SE6       29.95S
BROOKINGS      CLOUDY    66  61  82 SE12      29.97R
$$

SDZ017-020-022-023-036>040-048>070-280600-
SOUTHEAST SOUTH DAKOTA

CITY           SKY/WX    TMP DP  RH WIND       PRES   REMARKS
SIOUX FALLS    LGT RAIN  66  64  93 SE17      29.96R
HURON          CLOUDY    68  66  93 S12       29.92R
CHAMBERLAIN    CLOUDY    68  67  97 E10       29.92F
MITCHELL       CLOUDY    67  66  97 E7        29.91F
YANKTON        CLOUDY    66  64  94 E15G21    29.94F
$$

ABBREVIATIONS USED IN REMARKS
   TC - TEMPERATURE IN CELSIUS
  WCI - WIND CHILL INDEX
   HX - HEAT INDEX
  VSB - VISIBILITY



USA.gov is the U.S. government's official web portal to all federal, state and local government web resources and services.